NKS9925 KCLT-KFLL

Flight info

Callsign NKS9925
Flight time 1h 35m
Altitude 34000
Route ICONS5 NOOKS DCT WURFL Q83 JEVED Q97 PRMUS CUUDA3
Aircraft A320/M-SDE1E2E3FGHIJ2J3J4J5M1RWXYZ/LB1D1

Departure

Time 2026-05-05 11:33
Airport Charlotte Douglas International Airport (KCLT)

Arrival

Time 2026-05-05 13:09
Airport Fort Lauderdale Hollywood International Airport (KFLL)
Time Latitude Longitude Altitude Speed Heading
2026-05-05 11:17 35.21961 -80.94834 762 ft 0 kts 24°
2026-05-05 11:25 35.21957 -80.94837 762 ft 2 kts 24°
2026-05-05 11:25 35.21941 -80.94845 762 ft 3 kts 24°
2026-05-05 11:26 35.21923 -80.94855 762 ft 3 kts 24°
2026-05-05 11:26 35.21905 -80.94865 762 ft 3 kts 24°
2026-05-05 11:26 35.21886 -80.94875 762 ft 3 kts 24°
2026-05-05 11:26 35.21867 -80.94885 762 ft 3 kts 24°
2026-05-05 11:27 35.21854 -80.94892 762 ft 1 kts 342°
2026-05-05 11:27 35.21853 -80.94892 762 ft 0 kts 333°
2026-05-05 11:29 35.21856 -80.94894 762 ft 3 kts 333°
2026-05-05 11:29 35.21871 -80.94939 762 ft 9 kts 261°
2026-05-05 11:29 35.21873 -80.95024 762 ft 11 kts 308°
2026-05-05 11:29 35.21954 -80.95046 762 ft 13 kts 356°
2026-05-05 11:30 35.22020 -80.95052 762 ft 15 kts 356°
2026-05-05 11:30 35.22132 -80.95063 762 ft 17 kts 355°
2026-05-05 11:30 35.22304 -80.95079 762 ft 20 kts 356°
2026-05-05 11:30 35.22451 -80.95091 762 ft 22 kts 356°
2026-05-05 11:31 35.22610 -80.95104 762 ft 19 kts 355°
2026-05-05 11:31 35.22709 -80.95120 762 ft 13 kts 329°
2026-05-05 11:31 35.22729 -80.95177 762 ft 12 kts 268°
2026-05-05 11:31 35.22725 -80.95277 762 ft 6 kts 267°
2026-05-05 11:32 35.22705 -80.95314 762 ft 4 kts 176°
2026-05-05 11:32 35.22699 -80.95313 762 ft 1 kts 176°
2026-05-05 11:32 35.22697 -80.95313 762 ft 4 kts 176°
2026-05-05 11:32 35.22455 -80.95295 762 ft 70 kts 176°
2026-05-05 11:33 35.21751 -80.95234 763 ft 130 kts 176°
2026-05-05 11:33 35.20694 -80.95147 785 ft 172 kts 176°
2026-05-05 11:33 35.19537 -80.95064 1465 ft 160 kts 176°
2026-05-05 11:33 35.18420 -80.94988 2018 ft 164 kts 176°
2026-05-05 11:34 35.17210 -80.94961 2289 ft 183 kts 182°
2026-05-05 11:34 35.15881 -80.95050 2680 ft 196 kts 184°
2026-05-05 11:34 35.14478 -80.95174 3115 ft 209 kts 184°
2026-05-05 11:34 35.12958 -80.95310 3512 ft 228 kts 184°
2026-05-05 11:35 35.11335 -80.95392 3991 ft 243 kts 181°
2026-05-05 11:35 35.09602 -80.95404 4558 ft 256 kts 180°
2026-05-05 11:35 35.07769 -80.95412 5113 ft 270 kts 182°
2026-05-05 11:35 35.05868 -80.95494 5825 ft 275 kts 185°
2026-05-05 11:36 35.03954 -80.95603 6669 ft 275 kts 187°
2026-05-05 11:36 35.02042 -80.95703 7513 ft 275 kts 186°
2026-05-05 11:36 35.00133 -80.95788 8263 ft 278 kts 186°
2026-05-05 11:36 34.98185 -80.95872 8994 ft 281 kts 186°
2026-05-05 11:37 34.96210 -80.95965 9708 ft 284 kts 186°
2026-05-05 11:37 34.94218 -80.96059 10377 ft 289 kts 186°
2026-05-05 11:37 34.92164 -80.96155 10818 ft 302 kts 186°
2026-05-05 11:37 34.90037 -80.96253 11174 ft 316 kts 186°
2026-05-05 11:38 34.87776 -80.96355 11501 ft 331 kts 186°
2026-05-05 11:38 34.85442 -80.96457 11922 ft 340 kts 186°
2026-05-05 11:38 34.83057 -80.96559 12513 ft 343 kts 186°
2026-05-05 11:38 34.80658 -80.96662 13106 ft 346 kts 186°
2026-05-05 11:39 34.78265 -80.96765 13680 ft 350 kts 186°
2026-05-05 11:39 34.75820 -80.96851 14248 ft 353 kts 185°
2026-05-05 11:39 34.73345 -80.96921 14805 ft 356 kts 185°
2026-05-05 11:39 34.70859 -80.96992 15349 ft 359 kts 185°
2026-05-05 11:40 34.68355 -80.97067 15884 ft 361 kts 185°
2026-05-05 11:40 34.65826 -80.97142 16408 ft 364 kts 185°
2026-05-05 11:40 34.63311 -80.97220 16915 ft 367 kts 185°
2026-05-05 11:40 34.60747 -80.97371 17420 ft 369 kts 187°
2026-05-05 11:41 34.58179 -80.97598 17914 ft 371 kts 188°
2026-05-05 11:41 34.55588 -80.97847 18400 ft 374 kts 188°
2026-05-05 11:41 34.52984 -80.98104 18874 ft 377 kts 188°
2026-05-05 11:41 34.50355 -80.98358 19342 ft 379 kts 188°
2026-05-05 11:42 34.47709 -80.98605 19799 ft 382 kts 188°
2026-05-05 11:42 34.45078 -80.98847 20244 ft 385 kts 188°
2026-05-05 11:42 34.42400 -80.99097 20683 ft 387 kts 188°
2026-05-05 11:42 34.39703 -80.99352 21113 ft 390 kts 188°
2026-05-05 11:43 34.36988 -80.99609 21530 ft 392 kts 188°
2026-05-05 11:43 34.34247 -80.99868 21937 ft 395 kts 188°
2026-05-05 11:43 34.31495 -81.00129 22334 ft 397 kts 188°
2026-05-05 11:43 34.28727 -81.00390 22722 ft 400 kts 188°
2026-05-05 11:44 34.25977 -81.00647 23094 ft 402 kts 188°
2026-05-05 11:44 34.23174 -81.00907 23461 ft 404 kts 188°
2026-05-05 11:44 34.20360 -81.01170 23821 ft 407 kts 188°
2026-05-05 11:44 34.17527 -81.01435 24175 ft 409 kts 188°
2026-05-05 11:45 34.14679 -81.01699 24517 ft 411 kts 188°
2026-05-05 11:45 34.11819 -81.01965 24852 ft 413 kts 188°
2026-05-05 11:45 34.08945 -81.02232 25181 ft 415 kts 188°
2026-05-05 11:45 34.06083 -81.02496 25499 ft 417 kts 188°
2026-05-05 11:46 34.03179 -81.02765 25812 ft 419 kts 188°
2026-05-05 11:46 34.00263 -81.03036 26120 ft 421 kts 188°
2026-05-05 11:46 33.97317 -81.03227 26419 ft 425 kts 184°
2026-05-05 11:46 33.94353 -81.03241 26720 ft 427 kts 183°
2026-05-05 11:47 33.91368 -81.03209 27014 ft 429 kts 182°
2026-05-05 11:47 33.88396 -81.03153 27301 ft 431 kts 182°
2026-05-05 11:47 33.85384 -81.03101 27584 ft 433 kts 182°
2026-05-05 11:47 33.82361 -81.03069 27861 ft 435 kts 183°
2026-05-05 11:48 33.76275 -81.03031 28404 ft 438 kts 183°
2026-05-05 11:48 33.73252 -81.03007 28666 ft 440 kts 183°
2026-05-05 11:48 33.70182 -81.02976 28922 ft 442 kts 182°
2026-05-05 11:49 33.67098 -81.02944 29179 ft 444 kts 182°
2026-05-05 11:49 33.63998 -81.02913 29432 ft 446 kts 182°
2026-05-05 11:49 33.60890 -81.02883 29751 ft 445 kts 183°
2026-05-05 11:49 33.57795 -81.02856 30087 ft 445 kts 183°
2026-05-05 11:50 33.54698 -81.02828 30415 ft 444 kts 183°
2026-05-05 11:50 33.51611 -81.02799 30740 ft 443 kts 182°
2026-05-05 11:50 33.48568 -81.02769 31059 ft 443 kts 183°
2026-05-05 11:50 33.45477 -81.02740 31375 ft 442 kts 183°
2026-05-05 11:51 33.42405 -81.02713 31681 ft 442 kts 183°
2026-05-05 11:51 33.39330 -81.02684 31981 ft 441 kts 183°
2026-05-05 11:51 33.36264 -81.02655 32278 ft 440 kts 183°
2026-05-05 11:51 33.33196 -81.02626 32567 ft 440 kts 183°
2026-05-05 11:52 33.30135 -81.02598 32852 ft 439 kts 183°
2026-05-05 11:52 33.27074 -81.02570 33129 ft 439 kts 183°
2026-05-05 11:52 33.24016 -81.02544 33396 ft 438 kts 183°
2026-05-05 11:52 33.20998 -81.02517 33657 ft 438 kts 183°
2026-05-05 11:53 33.17958 -81.02488 33908 ft 437 kts 183°
2026-05-05 11:53 33.14903 -81.02459 34011 ft 436 kts 183°
2026-05-05 11:53 33.08828 -81.02405 34007 ft 437 kts 183°
2026-05-05 11:54 33.02751 -81.02347 34007 ft 437 kts 183°
2026-05-05 11:54 32.96696 -81.02290 34007 ft 437 kts 183°
2026-05-05 11:55 32.90605 -81.02235 34008 ft 436 kts 183°
2026-05-05 11:55 32.84565 -81.02180 34008 ft 436 kts 183°
2026-05-05 11:56 32.78477 -81.02125 34006 ft 436 kts 183°
2026-05-05 11:56 32.72391 -81.02070 34003 ft 436 kts 183°
2026-05-05 11:57 32.66343 -81.02016 34001 ft 436 kts 183°
2026-05-05 11:57 32.60265 -81.01961 34025 ft 436 kts 183°
2026-05-05 11:58 32.54187 -81.01905 34015 ft 436 kts 183°
2026-05-05 11:58 32.48161 -81.01971 34005 ft 435 kts 184°
2026-05-05 11:59 32.42101 -81.02087 33996 ft 435 kts 184°
2026-05-05 11:59 32.36040 -81.02196 33993 ft 435 kts 184°
2026-05-05 12:00 32.29966 -81.02301 33993 ft 435 kts 184°
2026-05-05 12:00 32.23938 -81.02406 33993 ft 435 kts 184°
2026-05-05 12:01 32.17859 -81.02516 33992 ft 435 kts 184°
2026-05-05 12:01 32.11823 -81.02624 33991 ft 435 kts 184°
2026-05-05 12:02 32.05770 -81.02729 33992 ft 435 kts 184°
2026-05-05 12:02 31.99698 -81.02836 33992 ft 435 kts 184°
2026-05-05 12:03 31.93666 -81.02981 33993 ft 435 kts 185°
2026-05-05 12:03 31.87614 -81.03176 33995 ft 435 kts 185°
2026-05-05 12:04 31.81546 -81.03340 33996 ft 435 kts 184°
2026-05-05 12:04 31.75478 -81.03497 33999 ft 435 kts 185°
2026-05-05 12:05 31.69460 -81.03664 34001 ft 435 kts 185°
2026-05-05 12:05 31.63391 -81.03830 34004 ft 435 kts 185°
2026-05-05 12:06 31.57340 -81.04035 34008 ft 434 kts 186°
2026-05-05 12:06 31.51303 -81.04422 34013 ft 434 kts 186°
2026-05-05 12:07 31.45260 -81.04827 34014 ft 434 kts 186°
2026-05-05 12:07 31.39245 -81.05209 34016 ft 434 kts 186°
2026-05-05 12:08 31.33226 -81.05592 34019 ft 434 kts 186°
2026-05-05 12:08 31.27179 -81.05982 34023 ft 434 kts 186°
2026-05-05 12:09 31.21127 -81.06297 34023 ft 435 kts 185°
2026-05-05 12:09 31.15114 -81.06549 34024 ft 435 kts 185°
2026-05-05 12:10 31.09057 -81.06809 34021 ft 435 kts 185°
2026-05-05 12:10 31.03007 -81.07073 34019 ft 435 kts 185°
2026-05-05 12:11 30.96987 -81.07332 34014 ft 435 kts 185°
2026-05-05 12:11 30.90929 -81.07593 34010 ft 435 kts 185°
2026-05-05 12:12 30.84875 -81.07854 34007 ft 435 kts 185°
2026-05-05 12:12 30.78828 -81.08115 34004 ft 435 kts 185°
2026-05-05 12:13 30.72810 -81.08373 34003 ft 435 kts 185°
2026-05-05 12:13 30.66763 -81.08632 34031 ft 434 kts 185°
2026-05-05 12:14 30.60717 -81.08891 34012 ft 434 kts 185°
2026-05-05 12:14 30.54712 -81.09148 34001 ft 434 kts 185°
2026-05-05 12:15 30.48664 -81.09407 33990 ft 434 kts 185°
2026-05-05 12:15 30.42631 -81.09667 33985 ft 434 kts 185°
2026-05-05 12:16 30.36583 -81.09924 33981 ft 434 kts 185°
2026-05-05 12:16 30.30575 -81.10178 33979 ft 434 kts 185°
2026-05-05 12:17 30.24521 -81.10435 33979 ft 434 kts 185°
2026-05-05 12:17 30.18474 -81.10694 33979 ft 434 kts 185°
2026-05-05 12:18 30.12459 -81.10950 33983 ft 434 kts 185°
2026-05-05 12:18 30.06399 -81.11205 33987 ft 434 kts 185°
2026-05-05 12:19 30.00355 -81.11461 33991 ft 434 kts 185°
2026-05-05 12:19 29.94339 -81.11715 33996 ft 434 kts 185°
2026-05-05 12:20 29.88296 -81.11970 34000 ft 434 kts 185°
2026-05-05 12:20 29.82287 -81.12172 33998 ft 436 kts 181°
2026-05-05 12:21 29.76238 -81.11206 33982 ft 440 kts 173°
2026-05-05 12:21 29.70226 -81.09872 33989 ft 440 kts 172°
2026-05-05 12:22 29.64185 -81.08618 33994 ft 439 kts 173°
2026-05-05 12:22 29.58178 -81.07425 33999 ft 439 kts 173°
2026-05-05 12:23 29.53168 -81.06397 34001 ft 440 kts 173°
2026-05-05 12:23 29.46158 -81.04956 34005 ft 439 kts 173°
2026-05-05 12:24 29.41142 -81.03939 34004 ft 439 kts 173°
2026-05-05 12:24 29.35102 -81.02711 34020 ft 439 kts 173°
2026-05-05 12:25 29.29117 -81.01491 34022 ft 439 kts 173°
2026-05-05 12:25 29.23087 -81.00267 34005 ft 439 kts 173°
2026-05-05 12:26 29.17095 -80.99051 33993 ft 439 kts 173°
2026-05-05 12:26 29.11076 -80.97832 33983 ft 439 kts 173°
2026-05-05 12:27 29.05055 -80.96614 33976 ft 439 kts 173°
2026-05-05 12:27 28.99037 -80.95398 33973 ft 439 kts 173°
2026-05-05 12:28 28.93039 -80.94186 33970 ft 439 kts 173°
2026-05-05 12:28 28.87008 -80.92971 33970 ft 439 kts 173°
2026-05-05 12:29 28.81020 -80.91763 33970 ft 439 kts 173°
2026-05-05 12:29 28.74991 -80.90551 33995 ft 438 kts 173°
2026-05-05 12:30 28.68994 -80.89348 34030 ft 437 kts 173°
2026-05-05 12:30 28.63027 -80.88149 33994 ft 438 kts 173°
2026-05-05 12:31 28.57034 -80.86949 33979 ft 438 kts 173°
2026-05-05 12:31 28.51004 -80.85739 33964 ft 438 kts 173°
2026-05-05 12:32 28.44994 -80.84538 33957 ft 438 kts 173°
2026-05-05 12:32 28.39029 -80.83345 33953 ft 438 kts 173°
2026-05-05 12:33 28.33029 -80.82148 33954 ft 438 kts 173°
2026-05-05 12:33 28.27021 -80.80953 33956 ft 438 kts 173°
2026-05-05 12:34 28.21012 -80.79757 33959 ft 438 kts 173°
2026-05-05 12:34 28.15010 -80.78561 33961 ft 438 kts 173°
2026-05-05 12:35 28.09043 -80.77376 33962 ft 438 kts 173°
2026-05-05 12:35 28.03035 -80.76184 33957 ft 438 kts 173°
2026-05-05 12:36 27.97020 -80.74993 33952 ft 438 kts 173°
2026-05-05 12:36 27.91101 -80.73820 33666 ft 430 kts 173°
2026-05-05 12:37 27.88151 -80.73235 33023 ft 431 kts 173°
2026-05-05 12:37 27.85164 -80.72647 32094 ft 439 kts 173°
2026-05-05 12:37 27.82142 -80.72052 31348 ft 441 kts 173°
2026-05-05 12:37 27.79138 -80.71457 30931 ft 435 kts 173°
2026-05-05 12:38 27.76180 -80.70869 30587 ft 428 kts 173°
2026-05-05 12:38 27.73266 -80.70291 30161 ft 422 kts 173°
2026-05-05 12:38 27.70371 -80.69721 29617 ft 420 kts 173°
2026-05-05 12:38 27.67498 -80.69157 29107 ft 417 kts 173°
2026-05-05 12:39 27.64675 -80.68602 28626 ft 414 kts 173°
2026-05-05 12:39 27.61844 -80.68045 28146 ft 411 kts 173°
2026-05-05 12:39 27.59029 -80.67491 27681 ft 407 kts 173°
2026-05-05 12:39 27.56242 -80.66940 27207 ft 404 kts 173°
2026-05-05 12:40 27.53481 -80.66394 26731 ft 401 kts 173°
2026-05-05 12:40 27.50778 -80.65859 26267 ft 398 kts 174°
2026-05-05 12:40 27.48024 -80.65321 25822 ft 395 kts 174°
2026-05-05 12:40 27.45363 -80.64798 25393 ft 391 kts 174°
2026-05-05 12:41 27.42683 -80.64269 24955 ft 388 kts 174°
2026-05-05 12:41 27.40024 -80.63747 24488 ft 385 kts 174°
2026-05-05 12:41 27.37425 -80.63237 24056 ft 382 kts 174°
2026-05-05 12:41 27.34816 -80.62727 23622 ft 379 kts 174°
2026-05-05 12:42 27.32229 -80.62220 23192 ft 375 kts 174°
2026-05-05 12:42 27.29659 -80.61718 22767 ft 372 kts 174°
2026-05-05 12:42 27.27109 -80.61222 22342 ft 370 kts 174°
2026-05-05 12:42 27.24590 -80.60684 21913 ft 369 kts 168°
2026-05-05 12:43 27.22237 -80.59510 21472 ft 373 kts 149°
2026-05-05 12:43 27.20331 -80.57573 21056 ft 377 kts 130°
2026-05-05 12:43 27.19026 -80.55019 20634 ft 379 kts 111°
2026-05-05 12:43 27.18488 -80.52141 20218 ft 378 kts 93°
2026-05-05 12:44 27.18528 -80.49194 19811 ft 375 kts 86°
2026-05-05 12:44 27.18735 -80.46285 19367 ft 373 kts 84°
2026-05-05 12:44 27.18996 -80.43411 18923 ft 371 kts 83°
2026-05-05 12:44 27.19278 -80.40511 18471 ft 370 kts 83°
2026-05-05 12:45 27.19563 -80.37648 18024 ft 368 kts 83°
2026-05-05 12:45 27.19851 -80.34787 17574 ft 367 kts 83°
2026-05-05 12:45 27.20138 -80.31939 17124 ft 365 kts 83°
2026-05-05 12:45 27.20421 -80.29145 16681 ft 363 kts 83°
2026-05-05 12:46 27.20707 -80.26319 16230 ft 362 kts 83°
2026-05-05 12:46 27.20993 -80.23506 15778 ft 360 kts 83°
2026-05-05 12:46 27.21272 -80.20714 15334 ft 359 kts 85°
2026-05-05 12:46 27.21145 -80.17971 15033 ft 352 kts 104°
2026-05-05 12:47 27.20264 -80.15486 14895 ft 337 kts 124°
2026-05-05 12:47 27.18792 -80.13515 14762 ft 325 kts 142°
2026-05-05 12:47 27.16916 -80.12154 14619 ft 318 kts 160°
2026-05-05 12:47 27.14839 -80.11363 14482 ft 314 kts 167°
2026-05-05 12:48 27.12745 -80.10653 14333 ft 314 kts 167°
2026-05-05 12:48 27.10681 -80.09943 14186 ft 313 kts 167°
2026-05-05 12:48 27.08603 -80.09224 14037 ft 312 kts 167°
2026-05-05 12:48 27.06524 -80.08504 13888 ft 312 kts 167°
2026-05-05 12:49 27.04432 -80.07872 13698 ft 311 kts 171°
2026-05-05 12:49 27.02275 -80.07351 13433 ft 321 kts 172°
2026-05-05 12:49 27.00094 -80.06862 13162 ft 326 kts 173°
2026-05-05 12:49 26.97854 -80.06356 12888 ft 328 kts 172°
2026-05-05 12:50 26.95619 -80.05834 12612 ft 327 kts 172°
2026-05-05 12:50 26.93396 -80.05303 12335 ft 326 kts 172°
2026-05-05 12:50 26.91181 -80.04773 12097 ft 325 kts 172°
2026-05-05 12:50 26.88970 -80.04247 11872 ft 324 kts 172°
2026-05-05 12:51 26.86771 -80.03727 11648 ft 323 kts 172°
2026-05-05 12:51 26.84573 -80.03209 11423 ft 322 kts 172°
2026-05-05 12:51 26.82383 -80.02693 11198 ft 321 kts 172°
2026-05-05 12:51 26.80204 -80.02180 10974 ft 319 kts 172°
2026-05-05 12:52 26.78030 -80.01667 10749 ft 318 kts 172°
2026-05-05 12:52 26.75892 -80.01162 10527 ft 317 kts 172°
2026-05-05 12:52 26.73730 -80.00652 10302 ft 316 kts 172°
2026-05-05 12:52 26.71575 -80.00145 10077 ft 315 kts 172°
2026-05-05 12:53 26.69444 -79.99642 9872 ft 308 kts 172°
2026-05-05 12:53 26.67382 -79.99154 9741 ft 298 kts 172°
2026-05-05 12:53 26.65378 -79.98679 9614 ft 290 kts 172°
2026-05-05 12:53 26.63400 -79.98216 9487 ft 290 kts 172°
2026-05-05 12:54 26.59489 -79.97303 9048 ft 288 kts 172°
2026-05-05 12:54 26.57528 -79.96841 8845 ft 287 kts 172°
2026-05-05 12:54 26.55572 -79.96381 8645 ft 286 kts 172°
2026-05-05 12:55 26.53622 -79.95922 8445 ft 286 kts 172°
2026-05-05 12:55 26.51677 -79.95466 8245 ft 285 kts 172°
2026-05-05 12:55 26.49736 -79.95010 8045 ft 284 kts 172°
2026-05-05 12:55 26.47824 -79.94561 7993 ft 284 kts 172°
2026-05-05 12:56 26.45891 -79.94108 7995 ft 284 kts 172°
2026-05-05 12:56 26.43950 -79.93653 7996 ft 284 kts 172°
2026-05-05 12:56 26.42017 -79.93200 7997 ft 284 kts 172°
2026-05-05 12:56 26.40102 -79.92756 7997 ft 283 kts 173°
2026-05-05 12:57 26.38167 -79.92644 7986 ft 276 kts 193°
2026-05-05 12:57 26.36401 -79.93370 8000 ft 269 kts 212°
2026-05-05 12:57 26.34801 -79.94458 8004 ft 268 kts 216°
2026-05-05 12:57 26.33228 -79.95582 8002 ft 268 kts 216°
2026-05-05 12:58 26.31628 -79.96660 8001 ft 269 kts 214°
2026-05-05 12:58 26.29991 -79.97691 8000 ft 269 kts 213°
2026-05-05 12:58 26.28378 -79.98695 7999 ft 269 kts 213°
2026-05-05 12:58 26.26754 -79.99725 7999 ft 269 kts 213°
2026-05-05 12:59 26.25134 -80.00766 7999 ft 269 kts 213°
2026-05-05 12:59 26.23519 -80.01803 7873 ft 267 kts 213°
2026-05-05 12:59 26.21901 -80.02837 7574 ft 267 kts 213°
2026-05-05 13:00 26.18735 -80.04974 6978 ft 263 kts 223°
2026-05-05 13:00 26.17583 -80.06499 6674 ft 256 kts 244°
2026-05-05 13:01 26.15980 -80.12136 5465 ft 257 kts 255°
2026-05-05 13:01 26.15423 -80.14013 4938 ft 260 kts 253°
2026-05-05 13:01 26.14989 -80.15965 4417 ft 261 kts 265°
2026-05-05 13:01 26.14934 -80.17971 3960 ft 261 kts 272°
2026-05-05 13:02 26.15018 -80.20011 3593 ft 262 kts 273°
2026-05-05 13:02 26.15089 -80.22040 3251 ft 261 kts 271°
2026-05-05 13:02 26.15099 -80.24063 3007 ft 259 kts 270°
2026-05-05 13:02 26.15092 -80.26082 3066 ft 261 kts 270°
2026-05-05 13:03 26.14903 -80.28041 2959 ft 253 kts 252°
2026-05-05 13:03 26.14127 -80.29751 2686 ft 245 kts 237°
2026-05-05 13:03 26.13152 -80.31310 2244 ft 247 kts 234°
2026-05-05 13:03 26.12129 -80.32847 2006 ft 243 kts 233°
2026-05-05 13:04 26.11123 -80.34297 1987 ft 229 kts 227°
2026-05-05 13:04 26.09854 -80.35257 1979 ft 216 kts 199°
2026-05-05 13:04 26.08428 -80.35397 1996 ft 200 kts 168°
2026-05-05 13:04 26.07273 -80.34759 2011 ft 181 kts 137°
2026-05-05 13:05 26.06705 -80.33611 1997 ft 164 kts 99°
2026-05-05 13:05 26.06820 -80.32393 2018 ft 162 kts 76°
2026-05-05 13:05 26.07134 -80.31170 2010 ft 164 kts 73°
2026-05-05 13:05 26.07465 -80.29954 2004 ft 164 kts 73°
2026-05-05 13:06 26.07753 -80.28725 1995 ft 164 kts 83°
2026-05-05 13:06 26.07768 -80.27451 1924 ft 164 kts 91°
2026-05-05 13:06 26.07743 -80.26198 1728 ft 160 kts 91°
2026-05-05 13:06 26.07740 -80.24966 1519 ft 158 kts 90°
2026-05-05 13:07 26.07734 -80.23781 1340 ft 147 kts 90°
2026-05-05 13:07 26.07729 -80.22697 1123 ft 138 kts 90°
2026-05-05 13:07 26.07723 -80.21623 946 ft 139 kts 90°
2026-05-05 13:07 26.07714 -80.20547 773 ft 139 kts 91°
2026-05-05 13:08 26.07707 -80.19472 571 ft 138 kts 90°
2026-05-05 13:08 26.07702 -80.18403 403 ft 138 kts 90°
2026-05-05 13:08 26.07698 -80.17346 198 ft 137 kts 90°
2026-05-05 13:08 26.07692 -80.16282 31 ft 135 kts 90°
2026-05-05 13:09 26.07686 -80.15393 23 ft 88 kts 90°
2026-05-05 13:09 26.07684 -80.14884 23 ft 48 kts 91°
2026-05-05 13:09 26.07680 -80.14657 23 ft 23 kts 94°
2026-05-05 13:09 26.07638 -80.14514 23 ft 13 kts 117°
2026-05-05 13:10 26.07606 -80.14444 23 ft 3 kts 117°
2026-05-05 13:10 26.07591 -80.14412 23 ft 6 kts 118°
2026-05-05 13:10 26.07568 -80.14372 23 ft 6 kts 137°
2026-05-05 13:10 26.07524 -80.14364 23 ft 8 kts 215°
2026-05-05 13:11 26.07509 -80.14428 23 ft 13 kts 269°
2026-05-05 13:11 26.07508 -80.14566 23 ft 20 kts 270°
2026-05-05 13:11 26.07510 -80.14730 23 ft 21 kts 270°
2026-05-05 13:11 26.07451 -80.14826 23 ft 19 kts 224°
2026-05-05 13:12 26.07352 -80.14940 23 ft 20 kts 226°
2026-05-05 13:12 26.07263 -80.15014 23 ft 13 kts 164°
2026-05-05 13:12 26.07213 -80.14970 23 ft 16 kts 132°
2026-05-05 13:12 26.07109 -80.14842 23 ft 25 kts 134°
2026-05-05 13:13 26.06958 -80.14670 23 ft 15 kts 134°
2026-05-05 13:13 26.06879 -80.14582 23 ft 17 kts 136°
2026-05-05 13:13 26.06818 -80.14515 23 ft 12 kts 133°
2026-05-05 13:13 26.06806 -80.14472 23 ft 7 kts 75°
2026-05-05 13:14 26.06819 -80.14435 23 ft 5 kts 66°
2026-05-05 13:14 26.06823 -80.14422 23 ft 0 kts 78°